period_start,C,m1,H,J0,J1,J2,J3,J4,J5,JA,JB,JC,JD,JJ,JK,JN,#
2014-04-21 00:00:54,0.04,0.30,0.00,23.59,28.32,31.00,5.89,30.92,1000.50,2036.01,3348.56,3234.67,3516.89,349.68,317.91,2.42,0000 0000 0000 0000 000000
2014-04-21 00:01:54,0.18,0.30,0.00,23.60,28.32,31.01,6.05,30.83,1000.50,2036.00,3348.20,3234.28,3516.42,350.67,318.60,2.43,0000 0000 0000 0000 000000
2014-04-21 00:02:54,0.17,0.30,0.00,23.60,28.32,31.02,5.96,30.71,1000.50,2036.01,3347.87,3234.09,3516.15,350.47,318.71,2.43,0000 0000 0000 0000 000000
2014-04-21 00:03:54,0.12,0.30,0.00,23.60,28.32,30.99,5.91,31.00,1000.50,2036.00,3347.38,3234.00,3516.03,350.05,318.01,2.44,0000 0000 0000 0000 000000
2014-04-21 00:04:55,0.09,0.30,0.00,23.60,28.33,31.01,5.91,31.04,1000.50,2036.00,3347.13,3233.67,3515.66,349.94,318.13,2.45,0000 0000 0000 0000 000000
2014-04-21 00:05:55,0.17,0.30,0.00,23.60,28.35,31.05,5.77,30.96,1000.50,2036.01,3346.78,3233.26,3515.25,349.83,318.36,2.45,0000 0000 0000 0000 000000
2014-04-21 00:06:55,0.17,0.30,0.00,23.60,28.35,31.06,5.97,30.92,1000.50,2036.00,3346.31,3233.09,3515.08,350.38,317.97,2.46,0000 0000 0000 0000 000000
2014-04-21 00:07:56,0.10,0.30,0.00,23.62,28.35,31.05,5.94,31.04,1000.50,2036.00,3346.10,3233.03,3514.97,350.30,318.26,2.46,0000 0000 0000 0000 000000
2014-04-21 00:08:56,0.05,0.30,0.00,23.62,28.35,31.03,5.93,31.04,1000.49,2036.00,3345.70,3232.71,3514.62,349.76,317.94,2.47,0000 0000 0000 0000 000000
2014-04-21 00:09:56,0.21,0.31,0.00,23.63,28.35,31.02,5.98,30.88,1000.50,2036.00,3345.26,3232.28,3514.22,350.63,317.94,2.47,0000 0000 0000 0000 000000
2014-04-21 00:10:57,0.17,0.31,0.00,23.64,28.36,31.03,5.98,30.88,1000.50,2036.00,3345.02,3232.10,3514.06,349.39,318.35,2.48,0000 0000 0000 0000 000000
2014-04-21 00:11:57,0.09,0.31,0.00,23.65,28.37,31.07,5.74,30.83,1000.50,2036.00,3344.53,3231.99,3513.67,348.73,317.77,2.49,0000 0000 0000 0000 000000
2014-04-21 00:12:57,0.15,0.31,0.00,23.65,28.37,31.04,5.95,31.13,1000.49,2036.00,3344.19,3231.71,3513.25,349.25,317.45,2.49,0000 0000 0000 0000 000000
2014-04-21 00:13:57,0.16,0.31,0.00,23.65,28.37,31.03,6.06,31.04,1000.50,2036.00,3343.92,3231.28,3513.08,350.88,318.93,2.50,0000 0000 0000 0000 000000
2014-04-21 00:14:57,0.14,0.31,0.00,23.65,28.37,31.02,5.91,30.96,1000.50,2036.00,3343.41,3231.10,3512.89,349.64,317.81,2.50,0000 0000 0000 0000 000000
2014-04-21 00:15:58,0.13,0.31,0.00,23.65,28.38,31.02,5.80,30.88,1000.50,2036.00,3343.11,3230.97,3512.41,349.17,317.38,2.51,0000 0000 0000 0000 000000
2014-04-21 00:16:58,0.14,0.31,0.00,23.66,28.38,31.05,5.93,30.96,1000.50,2036.00,3342.65,3230.58,3512.15,350.16,318.66,2.52,0000 0000 0000 0000 000000
2014-04-21 00:17:58,0.18,0.31,0.00,23.65,28.39,31.05,6.00,30.92,1000.50,2036.00,3342.25,3230.25,3512.05,349.61,317.77,2.52,0000 0000 0000 0000 000000
2014-04-21 00:18:58,0.12,0.31,0.00,23.66,28.40,31.05,5.97,31.04,1000.50,2036.00,3341.90,3230.09,3511.86,349.94,318.07,2.53,0000 0000 0000 0000 000000
2014-04-21 00:19:58,0.13,0.31,0.00,23.66,28.40,31.02,5.87,30.92,1000.50,2035.99,3341.35,3229.90,3511.37,349.90,318.03,2.53,0000 0000 0000 0000 000000
2014-04-21 00:20:59,0.16,0.31,0.00,23.67,28.40,31.05,6.08,31.00,1000.50,2035.99,3341.10,3229.41,3511.13,350.78,318.82,2.54,0000 0000 0000 0000 000000
2014-04-21 00:21:59,0.16,0.32,0.00,23.67,28.40,31.10,5.81,30.79,1000.50,2035.99,3340.61,3229.15,3511.00,350.28,318.36,2.55,0000 0000 0000 0000 000000
2014-04-21 00:22:59,0.14,0.32,0.00,23.67,28.40,31.12,5.92,30.88,1000.49,2035.98,3340.22,3229.04,3510.61,350.09,318.19,2.55,0000 0000 0000 0000 000000
2014-04-21 00:24:00,0.11,0.32,0.00,23.67,28.42,31.14,5.88,30.79,1000.49,2035.99,3340.00,3228.94,3510.26,350.26,318.46,2.56,0000 0000 0000 0000 000000
2014-04-21 00:25:00,0.11,0.32,0.00,23.67,28.42,31.12,6.08,31.04,1000.45,2035.99,3339.54,3228.59,3510.09,350.72,318.37,2.56,0000 0000 0000 0000 000000
2014-04-21 00:26:00,0.16,0.32,0.00,23.69,28.42,31.09,6.02,30.83,1000.44,2035.98,3339.19,3228.22,3509.92,350.46,318.49,2.57,0000 0000 0000 0000 000000
2014-04-21 00:27:01,0.11,0.32,0.00,23.70,28.42,31.13,5.94,30.88,1000.41,2035.98,3338.90,3228.08,3509.46,350.12,317.87,2.57,0000 0000 0000 0000 000000
2014-04-21 00:28:01,0.14,0.32,0.00,23.70,28.42,31.07,5.96,30.71,1000.39,2035.99,3338.41,3227.98,3509.16,350.23,318.29,2.58,0000 0000 0000 0000 000000
2014-04-21 00:29:01,0.13,0.32,0.00,23.70,28.43,31.07,5.87,30.71,1000.40,2035.96,3338.14,3227.59,3509.05,349.62,318.09,2.59,0000 0000 0000 0000 000000
2014-04-21 00:30:01,0.11,0.32,0.00,23.71,28.44,31.07,6.02,30.92,1000.39,2035.96,3337.84,3227.21,3508.85,350.02,317.84,2.59,0000 0000 0000 0000 000000
2014-04-21 00:31:02,0.16,0.32,0.00,23.72,28.45,31.07,5.83,31.21,1000.36,2035.97,3337.33,3227.07,3508.38,349.24,317.48,2.60,0000 0000 0000 0000 000000
2014-04-21 00:32:02,0.13,0.32,0.00,23.72,28.45,31.13,5.92,31.17,1000.34,2035.95,3337.06,3226.89,3508.13,350.09,318.15,2.60,0000 0000 0000 0000 000000
2014-04-21 00:33:02,0.09,0.32,0.00,23.72,28.45,31.11,5.91,31.04,1000.35,2035.96,3336.55,3226.44,3507.98,349.77,317.72,2.61,0000 0000 0000 0000 000000
2014-04-21 00:34:03,0.21,0.33,0.00,23.72,28.45,31.11,5.93,30.75,1000.40,2035.94,3336.20,3226.16,3507.50,349.88,317.92,2.62,0000 0000 0000 0000 000000
2014-04-21 00:35:03,0.11,0.33,0.00,23.72,28.45,31.11,5.95,31.17,1000.44,2035.93,3335.97,3226.05,3507.18,348.95,317.08,2.62,0000 0000 0000 0000 000000
2014-04-21 00:36:03,0.08,0.33,0.00,23.72,28.47,31.09,5.86,30.96,1000.43,2035.92,3335.45,3225.95,3507.06,349.96,317.99,2.63,0000 0000 0000 0000 000000
2014-04-21 00:37:04,0.10,0.33,0.00,23.73,28.47,31.08,5.97,30.96,1000.44,2035.95,3335.16,3225.57,3506.88,350.04,317.79,2.63,0000 0000 0000 0000 000000
2014-04-21 00:38:04,0.18,0.33,0.00,23.73,28.47,31.08,5.85,30.88,1000.45,2035.97,3334.85,3225.23,3506.48,349.85,317.58,2.64,0000 0000 0000 0000 000000
2014-04-21 00:39:04,0.19,0.33,0.00,23.74,28.47,31.12,6.01,31.21,1000.46,2035.98,3334.33,3225.08,3506.17,349.96,318.11,2.64,0000 0000 0000 0000 000000
2014-04-21 00:40:04,0.12,0.33,0.00,23.74,28.47,31.15,5.94,30.92,1000.45,2035.98,3334.07,3224.91,3506.04,350.42,318.40,2.65,0000 0000 0000 0000 000000
2014-04-21 00:41:04,0.06,0.33,0.00,23.74,28.48,31.17,5.89,31.04,1000.45,2035.94,3333.61,3224.45,3505.68,349.61,317.66,2.66,0000 0000 0000 0000 000000
2014-04-21 00:42:05,0.23,0.33,0.00,23.75,28.49,31.14,5.80,31.17,1000.36,2035.89,3333.22,3224.17,3505.27,349.20,317.26,2.66,0000 0000 0000 0000 000000
2014-04-21 00:43:05,0.11,0.33,0.00,23.75,28.50,31.15,5.92,31.13,1000.30,2035.81,3332.90,3224.05,3505.09,349.23,317.18,2.67,0000 0000 0000 0000 000000
2014-04-21 00:44:05,-0.01,0.33,0.00,23.75,28.50,31.20,5.86,31.17,1000.28,2035.68,3332.36,3223.90,3504.91,349.78,317.76,2.67,0000 0000 0000 0000 000000
2014-04-21 00:45:05,0.06,0.33,0.00,23.75,28.50,31.19,5.97,31.13,1000.27,2035.61,3332.11,3223.46,3504.46,350.71,318.60,2.68,0000 0000 0000 0000 000000
2014-04-21 00:46:05,0.11,0.33,0.00,23.75,28.50,31.21,6.00,31.08,1000.28,2035.59,3331.64,3223.17,3504.17,350.02,317.65,2.69,0000 0000 0000 0000 000000
2014-04-21 00:47:06,0.16,0.33,0.00,23.75,28.50,31.21,5.88,30.83,1000.28,2035.52,3331.23,3223.04,3504.06,349.53,317.59,2.69,0000 0000 0000 0000 000000
2014-04-21 00:48:06,0.00,0.33,0.00,23.77,28.52,31.19,6.04,31.17,1000.33,2035.38,3330.84,3222.68,3503.65,350.52,318.42,2.70,0000 0000 0000 0000 000000
2014-04-21 00:49:06,0.10,0.34,0.00,23.77,28.52,31.20,6.01,31.00,1000.36,2035.30,3330.33,3222.27,3503.24,350.43,318.05,2.70,0000 0000 0000 0000 000000
2014-04-21 00:50:06,0.18,0.34,0.00,23.77,28.52,31.13,5.74,30.96,1000.39,2035.29,3330.02,3222.09,3503.07,348.66,316.72,2.71,0000 0000 0000 0000 000000
2014-04-21 00:51:07,0.03,0.34,0.00,23.78,28.52,31.15,5.89,31.04,1000.45,2035.23,3329.54,3221.96,3502.76,349.77,318.14,2.72,0000 0000 0000 0000 000000
2014-04-21 00:52:07,0.09,0.34,0.00,23.80,28.52,31.16,5.88,31.04,1000.47,2035.14,3329.19,3221.51,3502.30,350.16,318.54,2.72,0000 0000 0000 0000 000000
2014-04-21 00:53:07,0.16,0.34,0.00,23.80,28.53,31.13,5.84,30.75,1000.50,2035.07,3328.76,3221.18,3502.10,350.59,318.35,2.73,0000 0000 0000 0000 000000
2014-04-21 00:54:07,0.09,0.34,0.00,23.82,28.54,31.12,5.69,30.71,1000.49,2035.06,3328.31,3221.06,3501.85,348.48,316.18,2.73,0000 0000 0000 0000 000000
2014-04-21 00:55:07,0.10,0.34,0.00,23.82,28.55,31.18,5.92,31.13,1000.50,2035.04,3328.04,3220.73,3501.36,350.17,318.89,2.74,0000 0000 0000 0000 000000
2014-04-21 00:56:07,0.17,0.34,0.00,23.82,28.55,31.16,5.87,31.17,1000.49,2035.06,3327.52,3220.29,3501.13,349.46,317.45,2.74,0000 0000 0000 0000 000000
2014-04-21 00:57:07,0.20,0.34,0.00,23.82,28.55,31.15,5.94,31.00,1000.48,2035.03,3327.19,3220.10,3500.99,349.72,317.69,2.75,0000 0000 0000 0000 000000
2014-04-21 00:58:08,0.04,0.34,0.00,23.82,28.55,31.17,5.95,31.08,1000.49,2035.02,3326.88,3219.98,3500.52,350.85,318.71,2.76,0000 0000 0000 0000 000000
2014-04-21 00:59:08,0.14,0.34,0.00,23.84,28.55,31.19,5.90,31.08,1000.50,2035.02,3326.36,3219.60,3500.19,348.97,316.99,2.76,0000 0000 0000 0000 000000
2014-04-21 01:00:08,0.20,0.34,0.00,23.85,28.57,31.19,5.77,31.00,1000.50,2035.01,3326.07,3219.25,3500.01,350.25,318.15,2.77,0000 0000 0000 0000 000000
2014-04-21 01:01:08,0.11,0.34,0.00,23.85,28.57,31.20,6.02,31.08,1000.50,2035.00,3325.55,3219.09,3499.54,350.78,318.63,2.77,0000 0000 0000 0000 000000
2014-04-21 01:02:09,0.17,0.35,0.00,23.85,28.57,31.22,6.07,31.13,1000.50,2035.02,3325.21,3219.00,3499.20,350.61,318.48,2.78,0000 0000 0000 0000 000000
2014-04-21 01:03:09,0.11,0.35,0.00,23.86,28.57,31.19,5.92,30.88,1000.50,2035.02,3324.84,3218.58,3499.07,350.30,318.08,2.79,0000 0000 0000 0000 000000
2014-04-21 01:04:09,0.16,0.35,0.00,23.87,28.57,31.23,5.82,30.67,1000.50,2035.00,3324.34,3218.21,3498.84,349.89,317.78,2.79,0000 0000 0000 0000 000000
2014-04-21 01:05:09,0.16,0.35,0.00,23.87,28.58,31.24,5.74,30.96,1000.50,2035.00,3324.04,3218.06,3498.37,349.96,317.68,2.80,0000 0000 0000 0000 000000
2014-04-21 01:06:09,0.12,0.35,0.00,23.87,28.60,31.21,5.87,30.96,1000.50,2035.00,3323.50,3217.78,3498.13,350.03,317.93,2.80,0000 0000 0000 0000 000000
2014-04-21 01:07:10,0.17,0.35,0.00,23.88,28.60,31.22,5.93,30.63,1000.50,2035.00,3323.18,3217.34,3497.92,350.20,318.17,2.81,0000 0000 0000 0000 000000
2014-04-21 01:08:10,0.16,0.35,0.00,23.89,28.60,31.25,6.00,30.88,1000.50,2035.00,3322.83,3217.12,3497.55,350.63,318.17,2.81,0000 0000 0000 0000 000000
2014-04-21 01:09:10,0.14,0.35,0.00,23.90,28.60,31.22,5.76,30.50,1000.50,2035.00,3322.33,3217.02,3497.21,348.98,317.13,2.82,0000 0000 0000 0000 000000
2014-04-21 01:10:10,0.12,0.35,0.00,23.92,28.60,31.22,6.01,30.83,1000.49,2035.00,3321.93,3216.61,3497.01,350.45,317.94,2.83,0000 0000 0000 0000 000000
2014-04-21 01:11:10,0.18,0.35,0.00,23.93,28.61,31.21,6.05,31.13,1000.49,2035.00,3321.38,3216.23,3496.58,350.66,318.43,2.83,0000 0000 0000 0000 000000
2014-04-21 01:12:10,0.21,0.35,0.00,23.94,28.62,31.22,5.86,30.92,1000.49,2035.00,3321.13,3216.07,3496.21,349.89,317.71,2.84,0000 0000 0000 0000 000000
2014-04-21 01:13:11,0.09,0.36,0.00,23.95,28.62,31.24,5.86,31.04,1000.47,2035.00,3320.64,3215.81,3496.04,349.78,317.61,2.84,0000 0000 0000 0000 000000
2014-04-21 01:14:11,0.15,0.36,0.00,23.96,28.62,31.19,5.99,31.04,1000.46,2035.00,3320.25,3215.37,3495.66,349.90,317.36,2.85,0000 0000 0000 0000 000000
2014-04-21 01:15:11,0.21,0.36,0.00,23.97,28.62,31.17,5.89,31.04,1000.49,2034.99,3319.94,3215.13,3495.24,350.56,317.73,2.86,0000 0000 0000 0000 000000
2014-04-21 01:16:11,0.11,0.36,0.00,23.97,28.63,31.17,5.83,31.00,1000.49,2034.99,3319.38,3214.98,3495.08,349.33,317.60,2.86,0000 0000 0000 0000 000000
2014-04-21 01:17:12,0.13,0.36,0.00,23.97,28.64,31.18,5.88,30.88,1000.50,2034.99,3319.09,3214.62,3494.78,349.89,317.70,2.87,0000 0000 0000 0000 000000
2014-04-21 01:18:12,0.15,0.36,0.00,23.97,28.65,31.19,5.82,31.04,1000.49,2034.99,3318.51,3214.26,3494.33,349.31,317.16,2.87,0000 0000 0000 0000 000000
2014-04-21 01:19:12,0.23,0.36,0.00,23.98,28.65,31.20,5.89,30.88,1000.49,2034.99,3318.18,3214.08,3494.11,350.16,317.92,2.88,0000 0000 0000 0000 000000
2014-04-21 01:20:12,0.10,0.36,0.00,23.98,28.65,31.21,5.89,30.88,1000.49,2034.99,3317.64,3213.89,3493.88,350.77,318.46,2.88,0000 0000 0000 0000 000000
2014-04-21 01:21:13,0.13,0.36,0.00,23.99,28.65,31.26,5.84,30.96,1000.50,2034.99,3317.23,3213.40,3493.39,349.88,317.66,2.89,0000 0000 0000 0000 000000
2014-04-21 01:22:13,0.22,0.36,0.00,24.00,28.66,31.22,5.73,30.67,1000.50,2034.99,3316.86,3213.14,3493.13,349.12,316.96,2.90,0000 0000 0000 0000 000000
2014-04-21 01:23:13,0.12,0.36,0.00,24.00,28.67,31.22,5.82,30.58,1000.50,2034.99,3316.35,3213.00,3492.90,349.96,317.73,2.90,0000 0000 0000 0000 000000
2014-04-21 01:24:13,0.13,0.37,0.00,24.00,28.67,31.22,5.87,30.96,1000.50,2034.98,3316.08,3212.57,3492.41,349.58,317.38,2.91,0000 0000 0000 0000 000000
2014-04-21 01:25:13,0.19,0.37,0.00,24.00,28.67,31.21,5.97,30.83,1000.50,2034.93,3315.54,3212.22,3492.14,350.09,317.85,2.91,0000 0000 0000 0000 000000
2014-04-21 01:26:13,0.12,0.37,0.00,24.00,28.67,31.20,5.92,30.96,1000.50,2034.94,3315.17,3212.05,3491.95,349.34,317.16,2.92,0000 0000 0000 0000 000000
2014-04-21 01:27:14,0.14,0.37,0.00,24.02,28.68,31.19,5.99,31.00,1000.50,2034.94,3314.69,3211.80,3491.46,350.49,318.41,2.93,0000 0000 0000 0000 000000
2014-04-21 01:28:14,0.17,0.37,0.00,24.03,28.69,31.22,5.88,30.75,1000.50,2034.94,3314.28,3211.37,3491.17,349.38,317.00,2.93,0000 0000 0000 0000 000000
2014-04-21 01:29:14,0.18,0.37,0.00,24.04,28.70,31.21,5.96,31.04,1000.50,2034.92,3313.90,3211.13,3491.02,350.52,318.43,2.94,0000 0000 0000 0000 000000
2014-04-21 01:30:15,0.11,0.37,0.00,24.05,28.70,31.24,5.77,30.96,1000.50,2034.94,3313.36,3211.01,3490.73,349.00,316.80,2.94,0000 0000 0000 0000 000000
2014-04-21 01:31:15,0.15,0.37,0.00,24.05,28.70,31.25,5.91,31.21,1000.50,2034.94,3312.94,3210.53,3490.29,350.44,318.13,2.95,0000 0000 0000 0000 000000
2014-04-21 01:32:15,0.19,0.37,0.00,24.07,28.70,31.26,5.97,30.83,1000.50,2034.81,3312.41,3210.19,3490.03,350.62,318.24,2.95,0000 0000 0000 0000 000000
2014-04-21 01:33:15,0.07,0.37,0.00,24.07,28.71,31.28,5.84,30.92,1000.50,2034.74,3312.12,3210.04,3489.55,349.30,317.13,2.96,0000 0000 0000 0000 000000
2014-04-21 01:34:15,0.09,0.37,0.00,24.09,28.72,31.26,5.92,30.67,1000.49,2034.72,3311.65,3209.73,3489.21,350.42,318.22,2.97,0000 0000 0000 0000 000000
2014-04-21 01:35:16,0.12,0.37,0.00,24.10,28.72,31.26,5.77,30.71,1000.49,2034.59,3311.22,3209.31,3489.04,349.81,317.90,2.97,0000 0000 0000 0000 000000
2014-04-21 01:36:16,0.10,0.38,0.00,24.10,28.72,31.26,5.91,30.92,1000.49,2034.46,3310.68,3209.11,3488.65,349.67,317.35,2.98,0000 0000 0000 0000 000000
2014-04-21 01:37:16,0.07,0.38,0.00,24.10,28.72,31.26,5.79,30.58,1000.49,2034.57,3310.28,3209.02,3488.29,349.80,317.47,2.98,0000 0000 0000 0000 000000
2014-04-21 01:38:16,0.24,0.38,0.00,24.12,28.73,31.25,5.99,30.79,1000.49,2034.59,3310.01,3208.65,3488.10,350.16,318.14,2.99,0000 0000 0000 0000 000000
2014-04-21 01:39:16,0.12,0.38,0.00,24.12,28.75,31.25,5.84,30.75,1000.50,2034.53,3309.46,3208.25,3487.99,349.48,317.58,3.00,0000 0000 0000 0000 000000
2014-04-21 01:40:17,0.13,0.38,0.00,24.12,28.75,31.26,5.93,30.83,1000.48,2034.49,3309.15,3208.09,3487.57,350.27,317.95,3.00,0000 0000 0000 0000 000000
2014-04-21 01:41:17,0.09,0.38,0.00,24.12,28.75,31.29,5.88,30.83,1000.45,2034.45,3308.78,3207.91,3487.20,349.72,317.63,3.01,0000 0000 0000 0000 000000
2014-04-21 01:42:17,0.08,0.38,0.00,24.12,28.75,31.31,5.65,30.50,1000.46,2034.38,3308.31,3207.40,3486.94,349.26,317.01,3.01,0000 0000 0000 0000 000000
2014-04-21 01:43:17,0.15,0.38,0.00,24.12,28.75,31.30,5.77,30.54,1000.45,2034.21,3308.00,3207.14,3486.43,349.19,316.87,3.02,0000 0000 0000 0000 000000
2014-04-21 01:44:17,0.03,0.38,0.00,24.12,28.77,31.33,5.98,30.92,1000.46,2034.10,3307.44,3207.04,3486.15,350.40,317.98,3.03,0000 0000 0000 0000 000000
2014-04-21 01:45:18,0.07,0.38,0.00,24.12,28.77,31.34,5.95,30.92,1000.46,2034.08,3307.13,3206.72,3486.00,350.31,317.90,3.03,0000 0000 0000 0000 000000
2014-04-21 01:46:18,0.12,0.38,0.00,24.14,28.77,31.35,5.84,30.71,1000.46,2034.08,3306.63,3206.28,3485.53,349.65,317.27,3.04,0000 0000 0000 0000 000000
2014-04-21 01:47:18,0.21,0.38,0.00,24.15,28.77,31.33,5.92,30.83,1000.43,2034.04,3306.24,3206.10,3485.19,349.87,317.46,3.04,0000 0000 0000 0000 000000
2014-04-21 01:48:18,0.11,0.38,0.00,24.15,28.78,31.34,5.88,30.83,1000.44,2034.03,3305.80,3205.85,3485.03,350.33,317.88,3.05,0000 0000 0000 0000 000000
2014-04-21 01:49:19,0.13,0.38,0.00,24.15,28.79,31.35,5.73,30.75,1000.42,2034.03,3305.31,3205.43,3484.62,349.34,316.98,3.05,0000 0000 0000 0000 000000
2014-04-21 01:50:19,0.20,0.39,0.00,24.15,28.80,31.36,5.76,30.75,1000.41,2034.02,3305.07,3205.16,3484.24,348.92,316.59,3.06,0000 0000 0000 0000 000000
2014-04-21 01:51:19,0.13,0.39,0.00,24.15,28.80,31.36,5.97,31.00,1000.33,2034.00,3304.53,3205.02,3484.06,350.46,318.09,3.07,0000 0000 0000 0000 000000
2014-04-21 01:52:19,0.11,0.39,0.00,24.16,28.80,31.36,6.08,30.96,1000.28,2034.00,3304.19,3204.70,3483.89,350.77,318.06,3.07,0000 0000 0000 0000 000000
2014-04-21 01:53:19,0.14,0.39,0.00,24.17,28.80,31.37,5.98,30.96,1000.21,2034.00,3303.92,3204.28,3483.41,349.91,317.40,3.08,0000 0000 0000 0000 000000
2014-04-21 01:54:20,0.18,0.39,0.00,24.18,28.81,31.38,5.87,30.71,1000.20,2034.00,3303.38,3204.10,3483.15,350.25,317.94,3.08,0000 0000 0000 0000 000000
2014-04-21 01:55:20,0.15,0.39,0.00,24.19,28.82,31.40,5.96,30.88,1000.20,2034.00,3303.02,3203.93,3482.85,350.36,317.75,3.09,0000 0000 0000 0000 000000
2014-04-21 01:56:20,0.12,0.39,0.00,24.20,28.82,31.37,5.91,30.75,1000.21,2034.00,3302.48,3203.45,3482.34,350.20,317.63,3.10,0000 0000 0000 0000 000000
2014-04-21 01:57:21,0.25,0.39,0.00,24.22,28.82,31.37,5.83,30.58,1000.23,2034.00,3302.15,3203.16,3482.12,349.74,317.20,3.10,0000 0000 0000 0000 000000
2014-04-21 01:58:21,0.14,0.39,0.00,24.22,28.82,31.40,5.81,30.63,1000.23,2034.00,3301.65,3203.03,3481.93,349.20,316.71,3.11,0000 0000 0000 0000 000000
2014-04-21 01:59:21,0.11,0.39,0.00,24.24,28.83,31.43,5.90,30.67,1000.30,2034.00,3301.23,3202.90,3481.51,350.53,317.91,3.11,0000 0000 0000 0000 000000
2014-04-21 02:00:21,0.14,0.39,0.00,24.25,28.84,31.43,5.98,30.63,1000.29,2034.00,3300.98,3202.46,3481.18,350.08,317.71,3.12,0000 0000 0000 0000 000000
2014-04-21 02:01:22,0.17,0.40,0.00,24.26,28.85,31.43,5.87,30.75,1000.36,2034.00,3300.44,3202.16,3481.04,349.78,317.44,3.12,0000 0000 0000 0000 000000
2014-04-21 02:02:22,0.16,0.40,0.00,24.27,28.85,31.43,5.89,30.92,1000.36,2034.00,3300.13,3202.05,3480.81,349.03,316.67,3.13,0000 0000 0000 0000 000000
2014-04-21 02:03:22,0.10,0.40,0.00,24.27,28.85,31.46,5.95,30.75,1000.37,2034.00,3299.69,3201.75,3480.33,350.38,317.77,3.14,0000 0000 0000 0000 000000
2014-04-21 02:04:22,0.18,0.40,0.00,24.27,28.86,31.44,5.85,30.67,1000.40,2034.00,3299.26,3201.31,3480.11,348.60,316.17,3.14,0000 0000 0000 0000 000000
2014-04-21 02:05:23,0.18,0.40,0.00,24.27,28.87,31.44,5.89,30.75,1000.34,2034.00,3298.86,3201.10,3479.80,349.73,317.31,3.15,0000 0000 0000 0000 000000
2014-04-21 02:06:23,0.15,0.40,0.00,24.28,28.87,31.41,5.98,30.75,1000.31,2034.00,3298.33,3200.87,3479.33,350.66,318.00,3.15,0000 0000 0000 0000 000000
2014-04-21 02:07:23,0.18,0.40,0.00,24.29,28.87,31.42,5.77,30.58,1000.35,2034.00,3298.03,3200.41,3479.11,350.05,317.44,3.16,0000 0000 0000 0000 000000
2014-04-21 02:08:24,0.17,0.40,0.00,24.30,28.87,31.44,5.94,30.63,1000.34,2033.99,3297.50,3200.15,3478.70,350.29,317.70,3.17,0000 0000 0000 0000 000000
2014-04-21 02:09:24,0.16,0.40,0.00,24.30,28.88,31.43,6.05,30.71,1000.32,2033.99,3297.18,3200.01,3478.30,349.59,316.58,3.17,0000 0000 0000 0000 000000
2014-04-21 02:10:24,0.12,0.40,0.00,24.31,28.89,31.45,5.90,30.88,1000.30,2033.99,3296.87,3199.63,3478.10,349.59,316.99,3.18,0000 0000 0000 0000 000000
2014-04-21 02:11:25,0.14,0.40,0.00,24.32,28.90,31.46,5.91,30.75,1000.29,2033.98,3296.36,3199.24,3477.90,350.32,317.39,3.18,0000 0000 0000 0000 000000
2014-04-21 02:12:25,0.17,0.41,0.00,24.32,28.90,31.45,5.88,30.88,1000.28,2033.98,3296.10,3199.08,3477.41,349.54,316.92,3.19,0000 0000 0000 0000 000000
2014-04-21 02:13:25,0.13,0.41,0.00,24.34,28.90,31.46,5.74,30.71,1000.34,2033.98,3295.55,3198.98,3477.15,349.73,317.28,3.20,0000 0000 0000 0000 000000
2014-04-21 02:14:26,0.14,0.41,0.00,24.35,28.90,31.47,5.97,30.71,1000.25,2033.97,3295.17,3198.55,3476.99,350.60,317.86,3.20,0000 0000 0000 0000 000000
2014-04-21 02:15:26,0.16,0.41,0.00,24.35,28.92,31.45,5.84,30.88,1000.24,2033.94,3294.67,3198.21,3476.56,348.77,316.36,3.21,0000 0000 0000 0000 000000
2014-04-21 02:16:26,0.15,0.41,0.00,24.37,28.92,31.46,5.99,30.88,1000.23,2033.92,3294.25,3198.07,3476.21,350.12,317.49,3.21,0000 0000 0000 0000 000000
2014-04-21 02:17:27,0.11,0.41,0.00,24.37,28.92,31.47,5.91,30.96,1000.20,2033.87,3293.86,3197.81,3476.00,350.53,318.14,3.22,0000 0000 0000 0000 000000
2014-04-21 02:18:27,0.10,0.41,0.00,24.37,28.92,31.52,6.04,30.96,1000.23,2033.88,3293.33,3197.33,3475.54,351.17,318.45,3.22,0000 0000 0000 0000 000000
2014-04-21 02:19:27,0.20,0.41,0.00,24.38,28.94,31.51,5.75,30.75,1000.21,2033.78,3293.00,3197.12,3475.20,349.66,316.52,3.23,0000 0000 0000 0000 000000
2014-04-21 02:20:27,0.08,0.41,0.00,24.39,28.95,31.50,5.97,30.75,1000.20,2033.70,3292.43,3196.95,3475.04,350.32,317.54,3.24,0000 0000 0000 0000 000000
2014-04-21 02:21:27,0.10,0.41,0.00,24.40,28.95,31.47,5.87,30.79,1000.27,2033.65,3292.12,3196.47,3474.61,350.01,317.27,3.24,0000 0000 0000 0000 000000
2014-04-21 02:22:28,0.13,0.41,0.00,24.40,28.95,31.48,6.01,30.75,1000.31,2033.56,3291.63,3196.17,3474.22,349.74,317.04,3.25,0000 0000 0000 0000 000000
2014-04-21 02:23:28,0.08,0.41,0.00,24.40,28.95,31.49,5.95,30.63,1000.34,2033.34,3291.23,3196.05,3474.06,350.22,317.48,3.25,0000 0000 0000 0000 000000
2014-04-21 02:24:28,-0.00,0.41,0.00,24.41,28.97,31.49,5.94,30.58,1000.27,2033.44,3291.03,3195.93,3473.83,349.47,316.78,3.26,0000 0000 0000 0000 000000
2014-04-21 02:25:29,0.15,0.41,0.00,24.42,28.97,31.52,5.92,30.71,1000.25,2033.45,3290.53,3195.47,3473.38,349.99,317.23,3.27,0000 0000 0000 0000 000000
2014-04-21 02:26:29,0.23,0.42,0.00,24.42,28.97,31.52,5.80,30.71,1000.24,2033.48,3290.18,3195.17,3473.14,349.37,317.09,3.27,0000 0000 0000 0000 000000
2014-04-21 02:27:29,0.16,0.42,0.00,24.42,28.97,31.51,5.82,30.83,1000.16,2033.51,3289.77,3195.06,3473.00,350.04,316.94,3.28,0000 0000 0000 0000 000000
2014-04-21 02:28:29,0.13,0.42,0.00,24.44,28.99,31.50,5.77,30.71,1000.22,2033.48,3289.30,3194.84,3472.54,349.51,316.76,3.28,0000 0000 0000 0000 000000
2014-04-21 02:29:29,0.10,0.42,0.00,24.45,29.00,31.53,5.84,30.58,1000.21,2033.34,3288.92,3194.38,3472.21,349.33,316.84,3.29,0000 0000 0000 0000 000000
2014-04-21 02:30:30,0.10,0.42,0.00,24.45,29.00,31.52,5.93,30.96,1000.23,2033.18,3288.36,3194.14,3472.02,349.71,316.94,3.29,0000 0000 0000 0000 000000
2014-04-21 02:31:30,0.04,0.42,0.00,24.45,29.00,31.51,5.97,31.00,1000.24,2033.10,3287.97,3193.83,3471.59,350.37,317.13,3.30,0000 0000 0000 0000 000000
2014-04-21 02:32:30,0.13,0.42,0.00,24.45,29.00,31.51,6.00,31.04,1000.21,2033.08,3287.40,3193.33,3471.22,350.82,318.20,3.31,0000 0000 0000 0000 000000
2014-04-21 02:33:30,0.20,0.42,0.00,24.45,29.02,31.52,5.82,30.67,1000.25,2033.07,3287.13,3193.12,3471.07,349.68,316.91,3.31,0000 0000 0000 0000 000000
2014-04-21 02:34:31,0.11,0.42,0.00,24.45,29.02,31.52,5.83,30.63,1000.29,2033.04,3286.65,3193.01,3470.76,349.74,316.88,3.32,0000 0000 0000 0000 000000
2014-04-21 02:35:31,0.11,0.42,0.00,24.45,29.02,31.52,5.80,30.67,1000.33,2033.04,3286.24,3192.60,3470.32,349.80,317.02,3.32,0000 0000 0000 0000 000000
2014-04-21 02:36:31,0.18,0.42,0.00,24.47,29.02,31.51,5.92,30.71,1000.39,2033.04,3285.84,3192.24,3470.10,349.98,317.35,3.33,0000 0000 0000 0000 000000
2014-04-21 02:37:32,0.16,0.42,0.00,24.47,29.03,31.52,5.81,30.58,1000.38,2033.02,3285.32,3192.08,3469.82,349.43,316.82,3.34,0000 0000 0000 0000 000000